Location: Unspecified
(0.0000°N, 0.0000°E)
Time: 07:54:31
(UTC+00:00)

ISS - Pass Details

Date: 20 November 2017
Orbit: 402 x 407 km, 51.6° (Epoch: 21 November)

Event Time Altitude Azimuth Distance (km) Brightness Sun altitude
Rises 19:11:25 0° 242° (WSW) 2,320 1.6 -20.1°
Reaches altitude 10° 19:13:59 10° 263° (W) 1,456 0.1 -20.7°
Maximum altitude 19:16:12 17° 306° (NW) 1,108 -1.3 -21.2°
Enters shadow 19:17:21 15° 331° (NNW) 1,210 -1.4 -21.5°
